Location: Oshawa
(43.9000°N, 78.8670°W)
Time: 01:58:19
(UTC-05:00)

Transit 2A Rocket - Visible Passes

Search period start: 13 December 2017 00:00
Search period end: 23 December 2017 00:00
Orbit: 584 x 920 km, 66.7° (Epoch: 12 December)

Date Brightness Start Highest point End Pass type
(mag) Time Alt. Az. Time Alt. Az. Time Alt. Az.
17 Dec 7.6 07:01:11 10° N 07:02:30 11° NNE 07:03:48 10° NE visible
20 Dec 7.5 06:35:45 10° N 06:38:16 13° NNE 06:40:44 10° NE visible
22 Dec 7.2 06:52:38 10° N 06:57:00 21° NE 07:01:09 10° E visible
